| time (UTC) | temp C | wind direction | speed KPH | gust KPH | rain 1hr cm | rain 24hr cm | rain mn cm | humidity % | barometer mb |
| 20260505063943 | 21 | 188 | 17.7 | 38.6 | 0.00 | 0.00 | 0.00 | 81 | 1004.7 |
| 20260505062936 | 21 | 196 | 19.3 | 37.0 | 0.00 | 0.00 | 0.00 | 81 | 1004.8 |
| 20260505060828 | 21 | 194 | 16.1 | 32.2 | 0.00 | 0.00 | 0.00 | 80 | 1004.8 |
| 20260505055758 | 21 | 206 | 17.7 | 37.0 | 0.00 | 0.00 | 0.00 | 79 | 1004.9 |
| 20260505054818 | 21 | 219 | 17.7 | 37.0 | 0.00 | 0.00 | 0.00 | 79 | 1005.1 |
| 20260505053813 | 21 | 184 | 16.1 | 30.6 | 0.00 | 0.00 | 0.00 | 79 | 1005.1 |
| 20260505052811 | 21 | 192 | 17.7 | 33.8 | 0.00 | 0.00 | 0.00 | 78 | 1005.2 |
| 20260505051830 | 22 | 202 | 17.7 | 38.6 | 0.00 | 0.00 | 0.00 | 78 | 1005.3 |
| 20260505050854 | 22 | 171 | 20.9 | 38.6 | 0.00 | 0.00 | 0.00 | 78 | 1005.3 |
| 20260505041644 | 22 | 177 | 12.9 | 32.2 | 0.00 | 0.00 | 0.00 | 76 | 1005.6 |
| 20260505040615 | 22 | 184 | 14.5 | 32.2 | 0.00 | 0.00 | 0.00 | 76 | 1005.7 |
| 20260505034458 | 22 | 155 | 11.3 | 24.1 | 0.00 | 0.00 | 0.00 | 75 | 1005.7 |
| 20260505033507 | 22 | 183 | 12.9 | 25.7 | 0.00 | 0.00 | 0.00 | 75 | 1005.9 |
| 20260505032517 | 22 | 190 | 12.9 | 25.7 | 0.00 | 0.00 | 0.00 | 74 | 1005.9 |
| 20260505031516 | 22 | 119 | 12.9 | 24.1 | 0.00 | 0.00 | 0.00 | 74 | 1005.8 |
| 20260505030538 | 22 | 174 | 11.3 | 24.1 | 0.00 | 0.00 | 0.00 | 74 | 1005.8 |
| 20260505025601 | 22 | 175 | 12.9 | 24.1 | 0.00 | 0.00 | 0.00 | 73 | 1005.8 |
| 20260505024545 | 22 | 175 | 11.3 | 24.1 | 0.00 | 0.00 | 0.00 | 73 | 1005.7 |
| 20260505023603 | 22 | 198 | 11.3 | 20.9 | 0.00 | 0.00 | 0.00 | 72 | 1005.6 |
| 20260505022619 | 22 | 162 | 9.7 | 25.7 | 0.00 | 0.00 | 0.00 | 72 | 1005.7 |
| 20260505021617 | 23 | 168 | 11.3 | 25.7 | 0.00 | 0.00 | 0.00 | 71 | 1005.6 |
| 20260505020623 | 23 | 195 | 11.3 | 25.7 | 0.00 | 0.00 | 0.00 | 70 | 1005.6 |
| 20260505015609 | 23 | 190 | 17.7 | 35.4 | 0.00 | 0.00 | 0.00 | 70 | 1005.4 |
| 20260505014553 | 23 | 165 | 19.3 | 40.2 | 0.00 | 0.00 | 0.00 | 69 | 1005.3 |
| 20260505011244 | 23 | 167 | 11.3 | 20.9 | 0.00 | 0.00 | 0.00 | 69 | 1005.5 |
| 20260505010303 | 23 | 186 | 12.9 | 27.4 | 0.00 | 0.00 | 0.00 | 68 | 1005.5 |
| 20260505005232 | 24 | 172 | 12.9 | 29.0 | 0.00 | 0.00 | 0.00 | 68 | 1005.5 |
| 20260505004239 | 24 | 186 | 12.9 | 29.0 | 0.00 | 0.00 | 0.00 | 67 | 1005.6 |
| 20260505003226 | 24 | 192 | 16.1 | 41.8 | 0.00 | 0.00 | 0.00 | 65 | 1005.6 |
| 20260505002206 | 25 | 193 | 16.1 | 41.8 | 0.00 | 0.00 | 0.00 | 65 | 1005.5 |
| 20260505001225 | 25 | 173 | 16.1 | 30.6 | 0.00 | 0.00 | 0.00 | 64 | 1005.6 |
| 20260505000218 | 25 | 191 | 16.1 | 37.0 | 0.00 | 0.00 | 0.00 | 63 | 1005.4 |
| 20260504234059 | 25 | 194 | 17.7 | 43.5 | 0.00 | 0.00 | 0.00 | 62 | 1005.7 |
| 20260504233058 | 25 | 206 | 20.9 | 43.5 | 0.00 | 0.00 | 0.00 | 61 | 1005.8 |
| 20260504225842 | 26 | 200 | 19.3 | 41.8 | 0.00 | 0.00 | 0.00 | 59 | 1006.4 |
| 20260504224810 | 26 | 183 | 24.1 | 48.3 | 0.00 | 0.00 | 0.00 | 58 | 1006.3 |
| 20260504223803 | 26 | 180 | 22.5 | 48.3 | 0.00 | 0.00 | 0.00 | 59 | 1006.3 |
| 20260504222821 | 26 | 170 | 20.9 | 41.8 | 0.00 | 0.00 | 0.00 | 58 | 1006.4 |
| 20260504221805 | 26 | 133 | 25.7 | 46.7 | 0.00 | 0.00 | 0.00 | 58 | 1006.5 |
| 20260504220809 | 26 | 167 | 25.7 | 46.7 | 0.00 | 0.00 | 0.00 | 56 | 1006.7 |
| 20260504215833 | 26 | 192 | 20.9 | 40.2 | 0.00 | 0.00 | 0.00 | 55 | 1006.7 |
| 20260504214815 | 26 | 173 | 20.9 | 40.2 | 0.00 | 0.00 | 0.00 | 56 | 1006.9 |
| 20260504213811 | 26 | 202 | 19.3 | 46.7 | 0.00 | 0.00 | 0.00 | 55 | 1006.9 |
| 20260504212744 | 26 | 178 | 24.1 | 46.7 | 0.00 | 0.00 | 0.00 | 54 | 1007.0 |
| 20260504210633 | 26 | 188 | 22.5 | 41.8 | 0.00 | 0.00 | 0.00 | 53 | 1007.5 |
| 20260504205624 | 26 | 147 | 19.3 | 40.2 | 0.00 | 0.00 | 0.00 | 55 | 1007.6 |
| 20260504204601 | 26 | 179 | 19.3 | 38.6 | 0.00 | 0.00 | 0.00 | 55 | 1007.8 |
| 20260504203554 | 26 | 146 | 20.9 | 38.6 | 0.00 | 0.00 | 0.00 | 54 | 1008.0 |
| 20260504202604 | 26 | 187 | 20.9 | 45.1 | 0.00 | 0.00 | 0.00 | 53 | 1008.2 |
| 20260504201546 | 26 | 172 | 24.1 | 45.1 | 0.00 | 0.00 | 0.00 | 53 | 1008.4 |
| 20260504195351 | 26 | 178 | 22.5 | 38.6 | 0.00 | 0.00 | 0.00 | 52 | 1008.9 |
| 20260504193211 | 26 | 185 | 20.9 | 43.5 | 0.00 | 0.00 | 0.00 | 50 | 1009.3 |
| 20260504192212 | 26 | 192 | 19.3 | 43.5 | 0.00 | 0.00 | 0.00 | 52 | 1009.4 |
| 20260504190013 | 25 | 180 | 20.9 | 45.1 | 0.00 | 0.00 | 0.00 | 53 | 1009.8 |
| 20260504185000 | 25 | 167 | 20.9 | 45.1 | 0.00 | 0.00 | 0.00 | 51 | 1009.7 |
| 20260504184025 | 25 | 182 | 17.7 | 37.0 | 0.00 | 0.00 | 0.00 | 52 | 1009.8 |
| 20260504183041 | 25 | 207 | 19.3 | 38.6 | 0.00 | 0.00 | 0.00 | 52 | 1010.0 |
| 20260504182045 | 25 | 221 | 20.9 | 40.2 | 0.00 | 0.00 | 0.00 | 53 | 1010.2 |
| 20260504181040 | 24 | 207 | 19.3 | 40.2 | 0.00 | 0.00 | 0.00 | 57 | 1010.4 |
| 20260504180031 | 24 | 173 | 24.1 | 43.5 | 0.00 | 0.00 | 0.00 | 54 | 1010.5 |
| 20260504175022 | 24 | 210 | 22.5 | 43.5 | 0.00 | 0.00 | 0.00 | 54 | 1010.7 |
| 20260504172911 | 23 | 204 | 24.1 | 46.7 | 0.00 | 0.00 | 0.00 | 56 | 1011.2 |
| 20260504171918 | 23 | 218 | 24.1 | 46.7 | 0.00 | 0.00 | 0.00 | 56 | 1011.4 |
| 20260504170919 | 23 | 202 | 24.1 | 46.7 | 0.00 | 0.00 | 0.00 | 56 | 1011.8 |
| 20260504150602 | 20 | 185 | 22.5 | 45.1 | 0.00 | 0.00 | 0.00 | 67 | 1012.6 |
| 20260504110306 | 16 | 183 | 6.4 | 16.1 | 0.00 | 0.00 | 0.00 | 79 | 1012.6 |
| 20260504100134 | 16 | 169 | 4.8 | 11.3 | 0.00 | 0.00 | 0.00 | 76 | 1012.8 |
| 20260504080459 | 16 | 173 | 4.8 | 8.0 | 0.00 | 0.00 | 0.00 | 72 | 1013.6 |